Regional Weather Roundup
Issued by NWS

Home | Current Version | Previous Version | Text Only | Print | Product List | Glossary On
Versions: 1 2 3 4 5 6 7 8 9 10 11 12 13 14 15 16 17 18 19 20 21 22 23 24 25 26 27 28 29 30 31 32 33 34 35 36 37 38 39 40 41 42 43 44 45 46 47 48 49 50
000
ASCA44 KEWX 242120
RWRMX

LATIN AMERICA AND CARIBBEAN REGIONAL WEATHER ROUNDUP
NATIONAL WEATHER SERVICE AUSTIN/SAN ANTONIO TX
400 PM CDT THU JUL 24 2014

NOTE: "FAIR" INDICATED FEW OR NO CLOUDS BELOW 12,000 FEET WITH NO
SIGNIFICANT WEATHER AND/OR OBSTRUCTIONS TO VISIBILITY.

BAJA CALIFORNIA

CITY           SKY/WX    TMP DP  RH WIND       PRES   REMARKS
LORETO         MOSUNNY   93  72  49 W21       29.78F HX 100
LA PAZ         MOSUNNY   91  66  43 CALM      29.85  HX  94
MEXICALI       PTSUNNY  111  45  10 SE7       29.70  HX 106
S.J. DEL CABO  PTSUNNY   91  64  40 N7        29.86F HX  93
TIJUANA        MOSUNNY   82  59  44 W15       29.83F

NORTHWESTERN MEXICO

CITY           SKY/WX    TMP DP  RH WIND       PRES   REMARKS
CULIACAN       PTSUNNY   95  73  49 N12       29.87  HX 105
DURANGO        PTSUNNY   81  37  21 NE12      30.24
GUAYMAS        MOSUNNY   91  79  66 S13       29.82  HX 107
HERMOSILLO     PTSUNNY  106  66  27 S23       29.82  BLWGDUSTHX 111
CD. JUAREZ     MOSUNNY   97  54  23 E12       30.08  HX  94
LOS MOCHIS     MOSUNNY   90  70  51 SE8       29.87F HX  95
OBREGON        MOSUNNY   97  70  41 S13       29.83  HX 103

NORTHEASTERN MEXICO

CITY           SKY/WX    TMP DP  RH WIND       PRES   REMARKS
CHIHUAHUA      MOSUNNY   91  48  22 SE14      30.17
MATAMOROS      MOSUNNY   93  73  52 SE14      29.96  HX 102
MONCLOVA       PTSUNNY  N/A N/A N/A SE23      30.00
MONTERREY      PTSUNNY   97  55  24 E10       29.93F HX  95
NUEVO LAREDO   CLOUDY   102  70  35 CALM      29.91  HX 110
PIEDRAS NEGRAS PTSUNNY  100  68  34 SE7       29.95F HX 106
REYNOSA        MOSUNNY   97  59  28 E6        29.89  HX  96
SALTILLO       PTSUNNY   86  66  51 NE17      30.17F
TORREON        PTSUNNY   90  50  25 N6        30.08F
CD. VICTORIA   MOSUNNY   95  59  30 SE9       29.93  HX  94

WESTERN MEXICO

CITY           SKY/WX    TMP DP  RH WIND       PRES   REMARKS
AGUASCALIENTES PTSUNNY   68  41  37 N6        30.27
COLIMA         PTSUNNY   81  64  57 SW12      30.03F
DEL BAJIO      PTSUNNY   79  50  36 NE6       30.25F
GUADALAJARA    PTSUNNY   79  52  38 NE9       30.15
MANZANILLO     MOSUNNY   90  77  66 SW9       29.85F HX 102
MAZATLAN       MOSUNNY   88  72  58 SW12      29.84F HX  94
P. VALLARTA    PTSUNNY   90  73  58 SW10      29.89F HX  98
URUAPAN        CLOUDY    70  61  73 S9        30.21F
ZACATECAS      PTSUNNY   75  43  31 E12       30.32F

CENTRAL MEXICO

CITY           SKY/WX    TMP DP  RH WIND       PRES   REMARKS
CUERNAVACA     PTSUNNY   79  57  47 W9        30.12F
MEXICO CITY    PTSUNNY   72  46  40 SE5       30.29F
MORELIA        LGT RAIN  63  57  82 S7        30.24
POZA RICA      PTSUNNY   91  75  59 SE12      30.00S HX 102
PUEBLA         CLOUDY    68  46  45 SE9       30.33F
QUERETARO      PTSUNNY   77  48  36 N6        30.27F
S. LUIS POTOSI PTSUNNY   77  48  36 E12       30.26F
TAMPICO        MOSUNNY   90  72  55 SE12      29.95F HX  96
TOLUCA         TSTM      59  46  63 SE16      30.38S

SOUTHERN MEXICO

CITY           SKY/WX    TMP DP  RH WIND       PRES   REMARKS
ACAPULCO       CLOUDY    86  75  70 W17       29.84F HX  95
B. DE HUATULCO CLOUDY    91  75  59 W12       29.85  HX 102
OAXACA         PTSUNNY   81  48  32 E7        30.16F
P. ESCONDIDO   CLOUDY    88  73  62 SW12      29.97F HX  96
VERACRUZ       PTSUNNY   88  70  55 E6        29.95F HX  92
ZIHUATANEJO    CLOUDY    90  75  62 SW6       29.90F HX 100

YUCATAN PENINSULA

CITY           SKY/WX    TMP DP  RH WIND       PRES   REMARKS
CAMPECHE       MOSUNNY   88  79  74 W12G23    29.87F HX 102
CANCUN         MOSUNNY   90  75  62 E9        29.97F HX 100
CHETUMAL       MOSUNNY   88  79  74 SE12      29.92F HX 102
CD. DEL CARMEN MOSUNNY   90  75  62 N8        29.89  HX 100
COZUMEL        MOSUNNY   84  73  70 E14       29.96F HX  91
MERIDA         PTSUNNY   93  68  43 N5        29.92F HX  97
MINATITLAN     MOSUNNY   86  68  54 N23       29.90
TAPACHULA      MOSUNNY   90  75  62 W12       29.82F HX 100
TUX. GUTIERREZ MOSUNNY   91  64  40 E5        29.89F HX  93
VILLAHERMOSA   MOSUNNY   95  70  43 E16       29.90F HX 101

CENTRAL AMERICA

CITY           SKY/WX    TMP DP  RH WIND       PRES   REMARKS
BELIZE CITY    MOSUNNY   88  75  66 E12       29.92F HX  97
MANAGUA        PTCLDY    91  70  49 NE14      29.74F HX  97

CARIBBEAN

CITY           SKY/WX    TMP DP  RH WIND       PRES   REMARKS
ARUBA          MOSUNNY   88  77  70 NE26G38   29.80S HX 100
KINGSTON       MOSUNNY   90  77  66 SE28      29.83F HX 102
SAN JUAN       MOSUNNY   86  75  70 NE21G28   30.01S HX  95
SANTO DOMINGO  MOSUNNY   86  75  70 SE13      29.92S HX  95
ST. CROIX      CLOUDY    86  72  62 E18       30.01S HX  92
ST. KITTS      MOSUNNY   84  75  74 NE18      30.00S HX  92
ST. MAARTEN    MOSUNNY   84  72  65 E16       30.00S
ST. THOMAS     PTSUNNY   88  73  62 E18       30.01R HX  96

$$



USA.gov is the U.S. government's official web portal to all federal, state and local government web resources and services.